Hourly Data Report for November 27, 2012

BAGOTVILLE A
QUEBEC

48°20'00.000" N
71°00'00.000" W
159.10 m
7060400
71727
YBG

Download Data

Hourly Data (November 2012)
Hourly Data Report for November 27, 2012
TIME
LST
Temp Definition
°C
Dew Point Definition
°C
Rel Hum Definition
%
Precip. Amount Definition
mm

Wind Dir Definition
10's deg

Wind Spd Definition
km/h
Visibility Definition
km
Stn Press Definition
kPa
Hmdx Definition


Wind Chill Definition


Weather Definition


00:00 -7.8 -12.7 68   22 11 24.1 100.22   -13 Mostly Cloudy
01:00 -7.1 -12.1 67   25 7 24.1 100.27   -11 Mostly Cloudy
02:00 -7.1 -11.7 70   34 4 24.1 100.31   -9 Mostly Cloudy
03:00 -7.3 -11.6 71     0 24.1 100.34     Mostly Cloudy
04:00 -7.0 -11.6 70     0 24.1 100.35     Mostly Cloudy
05:00 -7.1 -11.7 70   29 4 24.1 100.34   -9 Mostly Cloudy
06:00 -7.4 -11.3 74     0 24.1 100.39     Mostly Cloudy
07:00 -7.6 -11.5 74     0 40.2 100.45     Mostly Cloudy
08:00 -7.1 -11.7 70   22 7 40.2 100.51   -11 Mostly Cloudy
09:00 -6.2 -11.8 64     0 40.2 100.53     Mostly Cloudy
10:00 -5.1 -11.4 61   27 6 40.2 100.55   -8 Mostly Cloudy
11:00 -4.6 -11.6 58   29 4 40.2 100.52   -6 Mainly Clear
12:00 -4.2 -11.8 55     0 40.2 100.48     Mostly Cloudy
13:00 -4.0 -12.0 54     0 40.2 100.47     Mostly Cloudy
14:00 -4.0 -11.5 56   32 6 40.2 100.45   -7 Mostly Cloudy
15:00 -4.3 -11.1 59     0 40.2 100.47     Mostly Cloudy
16:00 -4.9 -11.6 59   10 6 40.2 100.48   -8 Mostly Cloudy
17:00 -5.5 -11.2 64   22 4 24.1 100.53   -7 Mostly Cloudy
18:00 -5.6 -12.2 60   26 6 24.1 100.59   -8 Mostly Cloudy
19:00 -6.2 -13.1 58     0 24.1 100.60     Mostly Cloudy
20:00 -10.8 -14.8 72   21 6 24.1 100.60   -14 Mainly Clear
21:00 -11.0 -15.0 72   20 7 24.1 100.62   -15 Mainly Clear
22:00 -11.5 -15.2 74   20 11 24.1 100.56   -17 Mainly Clear
23:00 -11.4 -14.6 77   19 9 24.1 100.53   -17 Mainly Clear

Notes on Data Quality.

Legend

  • E = Estimated
  • M = Missing
  • NA = Not Available*
  • [empty] = Indicates an unobserved value
Date modified: